Change the Weather History Date:

Wednesday, April 30, 2014

  Actual Average Record
Temperature  
Mean Temperature 75 °F 61 °F  
Max Temperature 91 °F 71 °F 91 °F (2014)
Min Temperature 59 °F 51 °F 38 °F (1946)
Degree Days  
Heating Degree Days 0    
Month to date heating degree days 126  
Since 1 July heating degree days 1738  
Cooling Degree Days 10    
Month to date cooling degree days 22  
Year to date cooling degree days 26  
Growing Degree Days 26 (Base 50)    
Moisture  
Dew Point 49 °F    
Average Humidity 44    
Maximum Humidity 65    
Minimum Humidity 23    
Precipitation  
Precipitation 0.00 in 0.02 in 0.48 in (1953)
Month to date precipitation 0.86 0.98  
Year to date precipitation 5.18 9.06  
Since 1 July precipitation 6.44 14.11  
Sea Level Pressure  
Sea Level Pressure 30.05 in    
Wind  
Wind Speed 4 mph (NNW)    
Max Wind Speed 15 mph    
Max Gust Speed 17 mph    
Visibility 10 miles    
Events      
T = Trace of Precipitation, MM = Missing Value Source: NWS Daily Summary

Daily Weather History Graph

Daily Weather History Graph

Search for Another Location

Airport or City:

Trip Planner

Search our weather history database for the weather conditions in past years. The results will help you decide how hot, cold, wet, or windy it might be!

Date:

Astronomy

Apr. 30, 2014 Rise Set
Actual Time 6:14 AM PDT 7:57 PM PDT
Civil Twilight 5:46 AM PDT 8:25 PM PDT
Nautical Twilight 5:12 AM PDT 8:59 PM PDT
Astronomical Twilight 4:36 AM PDT 9:35 PM PDT
Moon 7:20 AM PDT 9:40 PM PDT
Length of Visible Light 14h 39m
Length of Day
13h 43m
Waxing Crescent, 3% of the Moon is Illuminated
Apr 30
Waxing Crescent
May 6
First Quarter
May 14
Full
May 21
Last Quarter
May 28
New

Hourly Weather History & Observations

Time (PDT) Temp. Dew Point Humidity Pressure Visibility Wind Dir Wind Speed Gust Speed Precip Events Conditions
12:56 AM 66.9 °F 48.0 °F 51% 30.07 in 10.0 mi Calm Calm - N/A   Clear
1:56 AM 64.0 °F 48.0 °F 56% 30.07 in 10.0 mi Calm Calm - N/A   Clear
2:56 AM 64.0 °F 48.0 °F 56% 30.06 in 10.0 mi Calm Calm - N/A   Clear
3:56 AM 62.1 °F 50.0 °F 65% 30.07 in 10.0 mi Calm Calm - N/A   Clear
4:56 AM 60.1 °F 48.0 °F 64% 30.07 in 10.0 mi Calm Calm - N/A   Clear
5:56 AM 61.0 °F 48.0 °F 62% 30.07 in 10.0 mi Calm Calm - N/A   Clear
6:56 AM 61.0 °F 48.0 °F 62% 30.08 in 10.0 mi Calm Calm - N/A   Clear
7:56 AM 64.9 °F 51.1 °F 61% 30.10 in 10.0 mi Calm Calm - N/A   Clear
8:56 AM 70.0 °F 53.1 °F 55% 30.10 in 10.0 mi Calm Calm - N/A   Clear
9:56 AM 75.0 °F 48.0 °F 38% 30.09 in 10.0 mi Calm Calm - N/A   Clear
10:56 AM 80.1 °F 46.9 °F 31% 30.08 in 10.0 mi Calm Calm - N/A   Clear
11:56 AM 82.9 °F 46.9 °F 28% 30.07 in 10.0 mi NNE 3.5 mph - N/A   Clear
12:56 PM 86.0 °F 46.9 °F 26% 30.06 in 10.0 mi North 6.9 mph - N/A   Clear
1:56 PM 89.1 °F 46.0 °F 22% 30.04 in 10.0 mi North 6.9 mph - N/A   Clear
2:56 PM 91.0 °F 48.9 °F 23% 30.03 in 10.0 mi NNW 9.2 mph - N/A   Clear
3:56 PM 89.1 °F 48.0 °F 24% 30.02 in 10.0 mi NNW 10.4 mph - N/A   Clear
4:56 PM 88.0 °F 48.0 °F 25% 30.01 in 10.0 mi NNW 9.2 mph - N/A   Clear
5:56 PM 88.0 °F 46.9 °F 24% 30.00 in 10.0 mi NNW 11.5 mph - N/A   Clear
6:56 PM 84.0 °F 48.0 °F 28% 30.00 in 10.0 mi NW 6.9 mph - N/A   Clear
7:56 PM 81.0 °F 48.0 °F 31% 30.01 in 10.0 mi NW 8.1 mph - N/A   Clear
8:56 PM 78.1 °F 46.0 °F 32% 30.03 in 10.0 mi WNW 4.6 mph - N/A   Clear
9:56 PM 70.0 °F 51.1 °F 51% 30.06 in 10.0 mi North 9.2 mph - N/A   Clear
10:56 PM 71.1 °F 54.0 °F 55% 30.06 in 10.0 mi Calm Calm - N/A   Clear
11:56 PM 72.0 °F 51.1 °F 48% 30.05 in 10.0 mi Calm Calm - N/A   Clear